Back to catalog

OPS 0856 DEB

LostPO
NORAD 25828·DEBRIS·🇺🇸 United States

Launched Aug 19, 1966 from Vandenberg Space Force Base

Loading…

Next Passes (next 24 hours)

TLE

StaleSource: Space-Track

Epoch: Aug 9, 2011, 16:21 UTC

1 25828U 66077V   11221.68160030 -.00000001 +00000-0 +10000-3 0  9998
2 25828 089.0988 108.0361 1335043 285.5003 058.4376 08.79832763451668

Track OPS 0856 DEB in real time with AllMySat

Download on the App Store